Time,TemperatureF,DewpointF,PressureIn,WindDirection,WindDirectionDegrees,WindSpeedMPH,WindSpeedGustMPH,Humidity,HourlyPrecipIn,Conditions,Clouds,dailyrainin,SoftwareType,DateUTC
2013-06-25 00:12:00,69.4,67.0,29.91,North,4,0.0,0.0,91,0.00,,,0.00,weatherlink.com 1.10,2013-06-25 04:12:00,
2013-06-25 00:27:00,69.9,67.0,29.90,NNW,332,0.0,2.0,89,0.00,,,0.00,weatherlink.com 1.10,2013-06-25 04:27:00,
2013-06-25 00:42:00,69.8,66.0,29.90,NW,325,0.0,2.0,88,0.00,,,0.00,weatherlink.com 1.10,2013-06-25 04:42:00,
2013-06-25 00:57:00,69.7,66.0,29.89,NNW,330,0.0,1.0,88,0.00,,,0.00,weatherlink.com 1.10,2013-06-25 04:57:00,
2013-06-25 01:12:00,69.0,66.0,29.89,NNW,330,0.0,0.0,90,0.00,,,0.00,weatherlink.com 1.10,2013-06-25 05:12:00,
2013-06-25 01:27:00,68.4,66.0,29.88,NNW,330,0.0,0.0,91,0.00,,,0.00,weatherlink.com 1.10,2013-06-25 05:27:00,
2013-06-25 01:42:00,68.1,66.0,29.88,NNW,330,0.0,0.0,92,0.00,,,0.00,weatherlink.com 1.10,2013-06-25 05:42:00,
2013-06-25 01:57:00,68.0,66.0,29.87,NNW,330,0.0,0.0,92,0.00,,,0.00,weatherlink.com 1.10,2013-06-25 05:57:00,
2013-06-25 02:12:00,68.2,66.0,29.87,NNW,330,0.0,0.0,91,0.00,,,0.00,weatherlink.com 1.10,2013-06-25 06:12:00,
2013-06-25 02:27:00,68.5,66.0,29.87,NNW,330,0.0,0.0,91,0.00,,,0.00,weatherlink.com 1.10,2013-06-25 06:27:00,
2013-06-25 02:42:00,68.6,66.0,29.86,NNW,330,0.0,0.0,90,0.00,,,0.00,weatherlink.com 1.10,2013-06-25 06:42:00,
2013-06-25 02:57:00,68.5,66.0,29.86,NNW,330,0.0,0.0,90,0.00,,,0.00,weatherlink.com 1.10,2013-06-25 06:57:00,
2013-06-25 03:12:00,68.4,65.0,29.86,NNW,330,0.0,0.0,90,0.00,,,0.00,weatherlink.com 1.10,2013-06-25 07:12:00,
2013-06-25 03:27:00,68.4,65.0,29.87,NNW,330,0.0,0.0,90,0.00,,,0.00,weatherlink.com 1.10,2013-06-25 07:27:00,
2013-06-25 03:42:00,68.4,66.0,29.86,NNW,330,0.0,0.0,91,0.00,,,0.00,weatherlink.com 1.10,2013-06-25 07:42:00,
2013-06-25 03:57:00,68.3,66.0,29.87,NNW,330,0.0,0.0,91,0.00,,,0.00,weatherlink.com 1.10,2013-06-25 07:57:00,
2013-06-25 04:12:00,68.0,65.0,29.87,NNW,330,0.0,0.0,91,0.00,,,0.00,weatherlink.com 1.10,2013-06-25 08:12:00,
2013-06-25 04:28:00,67.5,65.0,29.87,NNW,330,0.0,0.0,92,0.00,,,0.00,weatherlink.com 1.10,2013-06-25 08:28:00,
2013-06-25 04:43:00,67.0,65.0,29.87,NNW,330,0.0,0.0,92,0.00,,,0.00,weatherlink.com 1.10,2013-06-25 08:43:00,
2013-06-25 04:58:00,66.7,65.0,29.86,NNW,330,0.0,0.0,93,0.00,,,0.00,weatherlink.com 1.10,2013-06-25 08:58:00,
2013-06-25 05:13:00,66.6,65.0,29.86,NNW,330,0.0,0.0,93,0.00,,,0.00,weatherlink.com 1.10,2013-06-25 09:13:00,
2013-06-25 05:28:00,66.9,65.0,29.86,NNW,330,0.0,0.0,93,0.00,,,0.00,weatherlink.com 1.10,2013-06-25 09:28:00,
2013-06-25 05:43:00,67.3,65.0,29.86,NNW,347,0.0,0.0,91,0.00,,,0.00,weatherlink.com 1.10,2013-06-25 09:43:00,
2013-06-25 05:58:00,67.9,65.0,29.87,NNW,347,0.0,0.0,90,0.00,,,0.00,weatherlink.com 1.10,2013-06-25 09:58:00,
2013-06-25 06:13:00,68.7,65.0,29.86,WNW,287,0.0,0.0,88,0.00,,,0.00,weatherlink.com 1.10,2013-06-25 10:13:00,
2013-06-25 06:28:00,69.7,66.0,29.86,WSW,243,0.0,2.0,87,0.00,,,0.00,weatherlink.com 1.10,2013-06-25 10:28:00,
2013-06-25 06:43:00,69.6,66.0,29.86,SE,124,0.0,1.0,87,0.00,,,0.00,weatherlink.com 1.10,2013-06-25 10:43:00,
2013-06-25 06:58:00,69.6,66.0,29.86,SE,124,0.0,0.0,88,0.00,,,0.00,weatherlink.com 1.10,2013-06-25 10:58:00,
2013-06-25 07:13:00,69.9,66.0,29.86,SE,124,0.0,0.0,88,0.00,,,0.00,weatherlink.com 1.10,2013-06-25 11:13:00,
2013-06-25 07:28:00,70.5,67.0,29.86,North,359,0.0,1.0,87,0.00,,,0.00,weatherlink.com 1.10,2013-06-25 11:28:00,
2013-06-25 07:43:00,71.9,67.0,29.86,SE,131,0.0,3.0,83,0.00,,,0.00,weatherlink.com 1.10,2013-06-25 11:43:00,
2013-06-25 07:58:00,72.3,67.0,29.86,NNE,23,0.0,1.0,83,0.00,,,0.00,weatherlink.com 1.10,2013-06-25 11:58:00,
2013-06-25 08:13:00,73.1,67.0,29.86,NNE,18,0.0,2.0,82,0.00,,,0.00,weatherlink.com 1.10,2013-06-25 12:13:00,
2013-06-25 08:28:00,74.0,68.0,29.86,SE,141,0.0,2.0,81,0.00,,,0.00,weatherlink.com 1.10,2013-06-25 12:28:00,
2013-06-25 08:43:00,75.1,68.0,29.85,NW,316,0.0,2.0,78,0.00,,,0.00,weatherlink.com 1.10,2013-06-25 12:43:00,
2013-06-25 08:58:00,76.1,68.0,29.85,SE,132,0.0,3.0,76,0.00,,,0.00,weatherlink.com 1.10,2013-06-25 12:58:00,
2013-06-25 09:13:00,77.0,68.0,29.84,South,187,2.0,4.0,74,0.00,,,0.00,weatherlink.com 1.10,2013-06-25 13:13:00,
2013-06-25 09:28:00,78.1,69.0,29.84,SE,138,0.0,2.0,73,0.00,,,0.00,weatherlink.com 1.10,2013-06-25 13:28:00,
2013-06-25 09:43:00,78.5,69.0,29.83,SE,134,0.0,3.0,73,0.00,,,0.00,weatherlink.com 1.10,2013-06-25 13:43:00,
2013-06-25 09:58:00,79.4,69.0,29.84,South,170,0.0,3.0,71,0.00,,,0.00,weatherlink.com 1.10,2013-06-25 13:58:00,
2013-06-25 10:13:00,80.3,70.0,29.84,SE,127,0.0,7.0,70,0.00,,,0.00,weatherlink.com 1.10,2013-06-25 14:13:00,
2013-06-25 10:28:00,80.8,70.0,29.85,SSE,156,0.0,4.0,70,0.00,,,0.00,weatherlink.com 1.10,2013-06-25 14:28:00,
2013-06-25 10:43:00,82.3,72.0,29.85,SE,135,2.0,4.0,70,0.00,,,0.00,weatherlink.com 1.10,2013-06-25 14:43:00,
2013-06-25 10:58:00,83.1,71.0,29.85,ESE,104,0.0,4.0,66,0.00,,,0.00,weatherlink.com 1.10,2013-06-25 14:58:00,
2013-06-25 11:14:00,84.4,71.0,29.85,SSE,158,2.0,4.0,64,0.00,,,0.00,weatherlink.com 1.10,2013-06-25 15:14:00,
2013-06-25 11:29:00,85.4,71.0,29.84,SE,139,2.0,4.0,63,0.00,,,0.00,weatherlink.com 1.10,2013-06-25 15:29:00,
2013-06-25 11:44:00,86.7,72.0,29.84,East,82,2.0,5.0,62,0.00,,,0.00,weatherlink.com 1.10,2013-06-25 15:44:00,
2013-06-25 11:59:00,86.6,71.0,29.83,SE,146,3.0,6.0,60,0.00,,,0.00,weatherlink.com 1.10,2013-06-25 15:59:00,
2013-06-25 12:14:00,87.5,72.0,29.83,SE,146,1.0,3.0,61,0.00,,,0.00,weatherlink.com 1.10,2013-06-25 16:14:00,
2013-06-25 12:29:00,88.2,73.0,29.83,ESE,117,1.0,5.0,61,0.00,,,0.00,weatherlink.com 1.10,2013-06-25 16:29:00,
2013-06-25 12:44:00,86.9,73.0,29.82,SSW,207,0.0,5.0,64,0.00,,,0.00,weatherlink.com 1.10,2013-06-25 16:44:00,
2013-06-25 12:59:00,86.4,74.0,29.82,SE,134,1.0,3.0,66,0.00,,,0.00,weatherlink.com 1.10,2013-06-25 16:59:00,
2013-06-25 13:14:00,87.6,70.0,29.81,ESE,112,1.0,8.0,57,0.00,,,0.00,weatherlink.com 1.10,2013-06-25 17:14:00,
2013-06-25 13:29:00,89.3,70.0,29.80,NNE,23,1.0,4.0,54,0.00,,,0.00,weatherlink.com 1.10,2013-06-25 17:29:00,
2013-06-25 13:44:00,88.9,71.0,29.79,SSE,157,0.0,5.0,56,0.00,,,0.00,weatherlink.com 1.10,2013-06-25 17:44:00,
2013-06-25 13:59:00,91.0,73.0,29.78,NE,51,0.0,4.0,56,0.00,,,0.00,weatherlink.com 1.10,2013-06-25 17:59:00,
2013-06-25 14:14:00,89.6,71.0,29.78,ENE,66,0.0,4.0,54,0.00,,,0.00,weatherlink.com 1.10,2013-06-25 18:14:00,
2013-06-25 14:29:00,89.8,70.0,29.77,WNW,287,4.0,9.0,53,0.00,,,0.00,weatherlink.com 1.10,2013-06-25 18:29:00,
2013-06-25 14:44:00,89.5,71.0,29.76,South,172,0.0,7.0,54,0.00,,,0.00,weatherlink.com 1.10,2013-06-25 18:44:00,
2013-06-25 14:59:00,89.9,71.0,29.75,North,352,2.0,6.0,54,0.00,,,0.00,weatherlink.com 1.10,2013-06-25 18:59:00,
2013-06-25 15:14:00,89.3,72.0,29.75,SW,226,3.0,6.0,56,0.00,,,0.00,weatherlink.com 1.10,2013-06-25 19:14:00,
2013-06-25 15:29:00,89.9,71.0,29.75,North,351,0.0,5.0,54,0.00,,,0.00,weatherlink.com 1.10,2013-06-25 19:29:00,
2013-06-25 15:44:00,89.8,72.0,29.73,SSE,150,0.0,7.0,55,0.00,,,0.00,weatherlink.com 1.10,2013-06-25 19:44:00,
2013-06-25 15:59:00,89.6,70.0,29.73,ENE,63,3.0,7.0,53,0.00,,,0.00,weatherlink.com 1.10,2013-06-25 19:59:00,
2013-06-25 16:14:00,88.9,70.0,29.73,South,169,0.0,4.0,54,0.00,,,0.00,weatherlink.com 1.10,2013-06-25 20:14:00,
2013-06-25 16:29:00,88.0,70.0,29.72,SW,225,5.0,6.0,55,0.00,,,0.00,weatherlink.com 1.10,2013-06-25 20:29:00,
2013-06-25 16:44:00,87.7,69.0,29.72,South,188,1.0,5.0,54,0.00,,,0.00,weatherlink.com 1.10,2013-06-25 20:44:00,
2013-06-25 16:59:00,86.3,68.0,29.72,SSE,148,1.0,3.0,55,0.00,,,0.00,weatherlink.com 1.10,2013-06-25 20:59:00,
2013-06-25 17:14:00,85.3,68.0,29.73,ESE,105,0.0,2.0,57,0.00,,,0.00,weatherlink.com 1.10,2013-06-25 21:14:00,
2013-06-25 17:29:00,84.6,71.0,29.72,ESE,106,0.0,0.0,63,0.00,,,0.00,weatherlink.com 1.10,2013-06-25 21:29:00,
2013-06-25 17:44:00,83.4,70.0,29.71,SE,139,0.0,2.0,65,0.00,,,0.00,weatherlink.com 1.10,2013-06-25 21:44:00,
2013-06-25 17:59:00,83.3,70.0,29.70,SE,139,0.0,0.0,65,0.00,,,0.00,weatherlink.com 1.10,2013-06-25 21:59:00,
2013-06-25 18:15:00,82.7,71.0,29.70,SE,139,0.0,0.0,67,0.00,,,0.00,weatherlink.com 1.10,2013-06-25 22:15:00,
2013-06-25 18:30:00,81.6,71.0,29.70,SE,140,0.0,0.0,71,0.00,,,0.00,weatherlink.com 1.10,2013-06-25 22:30:00,
2013-06-25 18:45:00,80.8,72.0,29.71,SE,140,0.0,0.0,74,0.00,,,0.00,weatherlink.com 1.10,2013-06-25 22:45:00,
2013-06-25 19:00:00,78.8,72.0,29.71,North,354,1.0,1.0,80,0.00,,,0.00,weatherlink.com 1.10,2013-06-25 23:00:00,
2013-06-25 19:15:00,76.6,72.0,29.72,East,101,0.0,2.0,85,0.01,,,0.01,weatherlink.com 1.10,2013-06-25 23:15:00,
2013-06-25 19:30:00,74.3,71.0,29.72,NNW,327,1.0,2.0,88,0.04,,,0.04,weatherlink.com 1.10,2013-06-25 23:30:00,
2013-06-25 19:45:00,72.2,70.0,29.74,SW,226,1.0,2.0,91,0.33,,,0.33,weatherlink.com 1.10,2013-06-25 23:45:00,
2013-06-25 20:00:00,71.1,69.0,29.73,NW,321,0.0,1.0,93,0.45,,,0.45,weatherlink.com 1.10,2013-06-26 00:00:00,
2013-06-25 20:15:00,71.0,69.0,29.73,NNW,327,0.0,1.0,94,0.46,,,0.47,weatherlink.com 1.10,2013-06-26 00:15:00,
2013-06-25 20:30:00,70.7,69.0,29.75,NNW,327,0.0,1.0,94,0.44,,,0.49,weatherlink.com 1.10,2013-06-26 00:30:00,
2013-06-25 20:45:00,70.4,69.0,29.73,NNW,330,0.0,1.0,95,0.33,,,0.68,weatherlink.com 1.10,2013-06-26 00:45:00,
2013-06-25 21:00:00,70.1,69.0,29.72,NNW,330,0.0,1.0,95,0.23,,,0.68,weatherlink.com 1.10,2013-06-26 01:00:00,
2013-06-25 21:15:00,70.0,69.0,29.72,NNW,330,0.0,0.0,95,0.22,,,0.69,weatherlink.com 1.10,2013-06-26 01:15:00,
2013-06-25 21:30:00,70.1,69.0,29.71,NNW,330,0.0,0.0,96,0.20,,,0.69,weatherlink.com 1.10,2013-06-26 01:30:00,
2013-06-25 21:45:00,69.9,69.0,29.72,NNW,330,0.0,0.0,96,0.01,,,0.69,weatherlink.com 1.10,2013-06-26 01:45:00,
2013-06-25 22:00:00,69.9,69.0,29.72,NW,318,0.0,0.0,96,0.01,,,0.69,weatherlink.com 1.10,2013-06-26 02:00:00,
2013-06-25 22:15:00,69.8,69.0,29.73,NW,318,0.0,0.0,96,0.00,,,0.69,weatherlink.com 1.10,2013-06-26 02:15:00,
2013-06-25 22:30:00,69.6,69.0,29.73,NW,317,0.0,0.0,96,0.00,,,0.69,weatherlink.com 1.10,2013-06-26 02:30:00,
2013-06-25 22:45:00,69.3,68.0,29.73,NW,317,0.0,0.0,96,0.00,,,0.69,weatherlink.com 1.10,2013-06-26 02:45:00,
2013-06-25 23:00:00,69.0,68.0,29.73,NW,317,0.0,0.0,96,0.00,,,0.69,weatherlink.com 1.10,2013-06-26 03:00:00,
2013-06-25 23:15:00,68.6,68.0,29.73,NW,318,0.0,0.0,96,0.00,,,0.69,weatherlink.com 1.10,2013-06-26 03:15:00,
2013-06-25 23:30:00,68.3,67.0,29.72,NW,317,0.0,0.0,96,0.00,,,0.69,weatherlink.com 1.10,2013-06-26 03:30:00,
2013-06-25 23:45:00,68.2,67.0,29.72,NW,317,0.0,0.0,96,0.00,,,0.69,weatherlink.com 1.10,2013-06-26 03:45:00,